WMT350 EDDM-EHAM

Flight info

Callsign WMT350
Flight time 1h 9m
Altitude 36000
Route GIVMI6Q GIVMI Y101 IBAGA DCT MASEK DCT MAPOX DCT NORKU NORKU2A
Aircraft A20N/M-SDE2E3FGHIRWXY/LB1

Departure

Time 2026-04-30 19:28
Airport Munich Airport (EDDM)

Arrival

Time 2026-04-30 20:37
Airport Amsterdam Airport Schiphol (EHAM)
Time Latitude Longitude Altitude Speed Heading
2026-04-30 18:51 48.35189 11.79370 1471 ft 0 kts 234°
2026-04-30 19:14 48.35190 11.79372 1462 ft 0 kts 234°
2026-04-30 19:15 48.35207 11.79408 1459 ft 2 kts 237°
2026-04-30 19:15 48.35214 11.79429 1461 ft 2 kts 263°
2026-04-30 19:16 48.35215 11.79453 1459 ft 2 kts 273°
2026-04-30 19:16 48.35213 11.79476 1461 ft 2 kts 292°
2026-04-30 19:16 48.35204 11.79498 1466 ft 1 kts 348°
2026-04-30 19:19 48.35245 11.79487 1468 ft 8 kts 350°
2026-04-30 19:20 48.35319 11.79475 1467 ft 13 kts 353°
2026-04-30 19:20 48.35428 11.79457 1469 ft 18 kts 354°
2026-04-30 19:20 48.35715 11.79406 1471 ft 20 kts 353°
2026-04-30 19:21 48.35834 11.79386 1465 ft 18 kts 354°
2026-04-30 19:21 48.35970 11.79337 1471 ft 0 kts 355°
2026-04-30 19:23 48.36076 11.79103 1467 ft 22 kts 263°
2026-04-30 19:24 48.36039 11.78612 1471 ft 25 kts 263°
2026-04-30 19:24 48.36017 11.78337 1467 ft 27 kts 263°
2026-04-30 19:24 48.35980 11.77834 1471 ft 26 kts 264°
2026-04-30 19:25 48.35936 11.77082 1462 ft 19 kts 298°
2026-04-30 19:26 48.36080 11.76966 1468 ft 12 kts 352°
2026-04-30 19:26 48.36296 11.77023 1473 ft 15 kts 75°
2026-04-30 19:26 48.36300 11.77055 1475 ft 0 kts 80°
2026-04-30 19:27 48.36304 11.77117 1475 ft 22 kts 86°
2026-04-30 19:27 48.36444 11.78928 1470 ft 140 kts 83°
2026-04-30 19:28 48.36565 11.80547 1680 ft 163 kts 84°
2026-04-30 19:28 48.36825 11.83852 3247 ft 145 kts 84°
2026-04-30 19:29 48.37073 11.87108 3997 ft 182 kts 84°
2026-04-30 19:29 48.37219 11.89096 4743 ft 205 kts 84°
2026-04-30 19:30 48.39892 11.94823 7139 ft 270 kts 17°
2026-04-30 19:30 48.43535 11.93648 9351 ft 287 kts 324°
2026-04-30 19:31 48.45330 11.88245 11303 ft 308 kts 272°
2026-04-30 19:31 48.44979 11.85070 12186 ft 317 kts 251°
2026-04-30 19:31 48.44799 11.78510 14021 ft 320 kts 294°
2026-04-30 19:32 48.45926 11.75667 14881 ft 314 kts 318°
2026-04-30 19:32 48.47602 11.73621 15786 ft 310 kts 331°
2026-04-30 19:32 48.49378 11.71749 16699 ft 314 kts 328°
2026-04-30 19:32 48.51081 11.69632 17594 ft 321 kts 323°
2026-04-30 19:33 48.52690 11.67251 18487 ft 327 kts 319°
2026-04-30 19:33 48.54236 11.64692 19268 ft 332 kts 317°
2026-04-30 19:33 48.55732 11.62078 20049 ft 335 kts 316°
2026-04-30 19:33 48.57246 11.59384 20826 ft 338 kts 316°
2026-04-30 19:34 48.58798 11.56620 21191 ft 355 kts 316°
2026-04-30 19:34 48.60450 11.53692 21379 ft 376 kts 316°
2026-04-30 19:34 48.63972 11.47431 22313 ft 398 kts 315°
2026-04-30 19:35 48.65767 11.44225 23088 ft 401 kts 316°
2026-04-30 19:35 48.67577 11.40991 23795 ft 405 kts 316°
2026-04-30 19:35 48.69465 11.37828 24383 ft 405 kts 321°
2026-04-30 19:35 48.71588 11.35042 24895 ft 403 kts 328°
2026-04-30 19:36 48.73866 11.32672 25348 ft 404 kts 332°
2026-04-30 19:36 48.76218 11.30310 25832 ft 407 kts 332°
2026-04-30 19:36 48.80962 11.25497 26731 ft 413 kts 332°
2026-04-30 19:37 48.83389 11.23163 27177 ft 412 kts 337°
2026-04-30 19:37 48.85965 11.21267 27600 ft 410 kts 343°
2026-04-30 19:37 48.88645 11.19823 28020 ft 409 kts 348°
2026-04-30 19:37 48.91362 11.18461 28427 ft 412 kts 347°
2026-04-30 19:38 48.94092 11.17070 28838 ft 415 kts 347°
2026-04-30 19:38 48.96836 11.15668 29232 ft 418 kts 347°
2026-04-30 19:38 48.99562 11.14275 29614 ft 420 kts 348°
2026-04-30 19:38 49.02338 11.12859 29982 ft 422 kts 348°
2026-04-30 19:39 49.05135 11.11432 30349 ft 425 kts 348°
2026-04-30 19:39 49.07947 11.09998 30679 ft 427 kts 348°
2026-04-30 19:39 49.10772 11.08554 31021 ft 429 kts 347°
2026-04-30 19:39 49.13607 11.07107 31353 ft 431 kts 347°
2026-04-30 19:40 49.16456 11.05654 31724 ft 432 kts 347°
2026-04-30 19:40 49.19302 11.04200 32158 ft 430 kts 347°
2026-04-30 19:40 49.22136 11.02746 32604 ft 429 kts 347°
2026-04-30 19:40 49.24960 11.01292 33045 ft 428 kts 347°
2026-04-30 19:41 49.27778 10.99840 33452 ft 427 kts 347°
2026-04-30 19:41 49.30588 10.98390 33862 ft 425 kts 347°
2026-04-30 19:41 49.33352 10.96963 34268 ft 424 kts 347°
2026-04-30 19:41 49.36139 10.95478 34618 ft 425 kts 344°
2026-04-30 19:42 49.38837 10.93606 34956 ft 428 kts 338°
2026-04-30 19:42 49.41420 10.91291 35273 ft 431 kts 332°
2026-04-30 19:42 49.43886 10.88656 35587 ft 431 kts 331°
2026-04-30 19:42 49.46347 10.86028 35893 ft 430 kts 331°
2026-04-30 19:43 49.48807 10.83413 36188 ft 429 kts 331°
2026-04-30 19:43 49.51234 10.80828 36358 ft 429 kts 331°
2026-04-30 19:44 49.58569 10.73004 36382 ft 428 kts 331°
2026-04-30 19:44 49.63459 10.67770 36383 ft 428 kts 331°
2026-04-30 19:45 49.68347 10.62519 36389 ft 428 kts 330°
2026-04-30 19:45 49.73209 10.57283 36388 ft 429 kts 330°
2026-04-30 19:46 49.78226 10.52356 36391 ft 427 kts 334°
2026-04-30 19:46 49.83281 10.47529 36388 ft 427 kts 333°
2026-04-30 19:47 49.88336 10.42684 36393 ft 427 kts 333°
2026-04-30 19:47 49.93361 10.37859 36387 ft 428 kts 333°
2026-04-30 19:48 49.98416 10.32994 36385 ft 428 kts 333°
2026-04-30 19:48 50.03476 10.28112 36386 ft 428 kts 333°
2026-04-30 19:49 50.08536 10.23219 36388 ft 428 kts 333°
2026-04-30 19:49 50.16102 10.15878 36391 ft 429 kts 333°
2026-04-30 19:50 50.21175 10.10941 36395 ft 430 kts 333°
2026-04-30 19:50 50.26251 10.05987 36397 ft 430 kts 333°
2026-04-30 19:51 50.31300 10.01048 36400 ft 431 kts 332°
2026-04-30 19:51 50.36384 9.96062 36402 ft 432 kts 332°
2026-04-30 19:52 50.41476 9.91056 36414 ft 432 kts 332°
2026-04-30 19:52 50.46569 9.86034 36403 ft 433 kts 332°
2026-04-30 19:53 50.51665 9.80998 36400 ft 432 kts 332°
2026-04-30 19:53 50.56706 9.76001 36408 ft 431 kts 332°
2026-04-30 19:54 50.61784 9.70957 36402 ft 432 kts 332°
2026-04-30 19:54 50.66860 9.65902 36408 ft 432 kts 332°
2026-04-30 19:55 50.71801 9.60458 36409 ft 436 kts 324°
2026-04-30 19:55 50.76100 9.53710 36399 ft 442 kts 314°
2026-04-30 19:56 50.80012 9.46199 36414 ft 443 kts 314°
2026-04-30 19:56 50.83149 9.40215 36408 ft 443 kts 313°
2026-04-30 19:57 50.87091 9.32639 36413 ft 444 kts 313°
2026-04-30 19:57 50.91007 9.25070 36412 ft 444 kts 313°
2026-04-30 19:58 50.94888 9.17543 36411 ft 444 kts 313°
2026-04-30 19:58 50.98800 9.09935 36413 ft 444 kts 313°
2026-04-30 19:59 51.02698 9.02330 36411 ft 444 kts 312°
2026-04-30 20:00 51.08514 8.90945 36410 ft 444 kts 312°
2026-04-30 20:00 51.12399 8.83311 36406 ft 444 kts 312°
2026-04-30 20:01 51.18723 8.72620 36403 ft 441 kts 317°
2026-04-30 20:01 51.22968 8.65640 36398 ft 441 kts 317°
2026-04-30 20:02 51.29371 8.55069 36391 ft 442 kts 317°
2026-04-30 20:03 51.35771 8.44459 36389 ft 442 kts 316°
2026-04-30 20:03 51.40038 8.37360 36389 ft 442 kts 316°
2026-04-30 20:04 51.44299 8.30249 36391 ft 443 kts 316°
2026-04-30 20:05 51.50665 8.19589 36388 ft 443 kts 316°
2026-04-30 20:05 51.57052 8.08847 36383 ft 443 kts 316°
2026-04-30 20:06 51.61311 8.01659 36382 ft 443 kts 316°
2026-04-30 20:06 51.65558 7.94469 36377 ft 444 kts 315°
2026-04-30 20:07 51.69778 7.87304 36378 ft 444 kts 315°
2026-04-30 20:08 51.76143 7.76459 36374 ft 444 kts 315°
2026-04-30 20:08 51.80378 7.69215 36374 ft 444 kts 315°
2026-04-30 20:09 51.84608 7.61955 36262 ft 446 kts 315°
2026-04-30 20:09 51.86787 7.58185 34480 ft 470 kts 315°
2026-04-30 20:09 51.91193 7.50611 33711 ft 444 kts 315°
2026-04-30 20:10 51.95386 7.43373 34375 ft 443 kts 315°
2026-04-30 20:10 51.97506 7.39704 34336 ft 448 kts 314°
2026-04-30 20:10 51.99634 7.36015 34066 ft 447 kts 314°
2026-04-30 20:11 52.03879 7.28635 33302 ft 448 kts 314°
2026-04-30 20:11 52.06013 7.24918 32464 ft 453 kts 314°
2026-04-30 20:11 52.08141 7.21205 31674 ft 454 kts 314°
2026-04-30 20:12 52.12386 7.13777 30573 ft 444 kts 314°
2026-04-30 20:12 52.14480 7.10105 29956 ft 440 kts 314°
2026-04-30 20:12 52.16545 7.06481 29398 ft 434 kts 314°
2026-04-30 20:13 52.18580 7.02903 28841 ft 429 kts 314°
2026-04-30 20:13 52.20596 6.99357 28290 ft 424 kts 314°
2026-04-30 20:13 52.22515 6.95733 27746 ft 420 kts 309°
2026-04-30 20:13 52.24337 6.92048 27203 ft 416 kts 310°
2026-04-30 20:14 52.26141 6.88457 26678 ft 412 kts 310°
2026-04-30 20:14 52.27966 6.84831 26431 ft 420 kts 310°
2026-04-30 20:14 52.29827 6.81125 26386 ft 423 kts 310°
2026-04-30 20:14 52.31683 6.77411 26068 ft 422 kts 310°
2026-04-30 20:15 52.33543 6.73677 25365 ft 427 kts 310°
2026-04-30 20:15 52.35432 6.69878 24410 ft 434 kts 309°
2026-04-30 20:15 52.37360 6.65993 23291 ft 443 kts 309°
2026-04-30 20:15 52.39296 6.62082 22625 ft 439 kts 309°
2026-04-30 20:16 52.41202 6.58225 22063 ft 432 kts 310°
2026-04-30 20:16 52.43053 6.54477 21482 ft 427 kts 310°
2026-04-30 20:16 52.44895 6.50693 20902 ft 422 kts 306°
2026-04-30 20:16 52.46318 6.46522 20332 ft 418 kts 292°
2026-04-30 20:17 52.47090 6.41957 19765 ft 414 kts 278°
2026-04-30 20:17 52.47352 6.37283 19146 ft 412 kts 274°
2026-04-30 20:17 52.47581 6.32622 18620 ft 408 kts 274°
2026-04-30 20:17 52.47810 6.28002 18017 ft 404 kts 274°
2026-04-30 20:18 52.48036 6.23435 17463 ft 400 kts 274°
2026-04-30 20:18 52.48258 6.18905 16904 ft 396 kts 273°
2026-04-30 20:18 52.48473 6.14483 16363 ft 393 kts 273°
2026-04-30 20:18 52.48688 6.10028 15804 ft 390 kts 273°
2026-04-30 20:19 52.48900 6.05605 15262 ft 388 kts 273°
2026-04-30 20:19 52.49041 6.02632 14893 ft 386 kts 272°
2026-04-30 20:19 52.49314 5.96844 14168 ft 383 kts 272°
2026-04-30 20:19 52.49519 5.92484 13606 ft 380 kts 272°
2026-04-30 20:20 52.49719 5.88182 13085 ft 376 kts 272°
2026-04-30 20:20 52.49916 5.83920 12563 ft 373 kts 272°
2026-04-30 20:20 52.50106 5.79760 12043 ft 370 kts 272°
2026-04-30 20:20 52.50297 5.75559 11533 ft 367 kts 272°
2026-04-30 20:21 52.50485 5.71394 11093 ft 362 kts 272°
2026-04-30 20:21 52.50666 5.67354 10947 ft 348 kts 272°
2026-04-30 20:21 52.50840 5.63470 10822 ft 335 kts 272°
2026-04-30 20:21 52.51000 5.59736 10687 ft 321 kts 270°
2026-04-30 20:22 52.50856 5.56148 10453 ft 310 kts 256°
2026-04-30 20:22 52.50259 5.52816 10312 ft 303 kts 246°
2026-04-30 20:22 52.49538 5.49558 10168 ft 304 kts 247°
2026-04-30 20:22 52.48831 5.46295 10005 ft 303 kts 247°
2026-04-30 20:23 52.48143 5.43089 9850 ft 301 kts 247°
2026-04-30 20:23 52.47447 5.39856 9697 ft 300 kts 247°
2026-04-30 20:23 52.46751 5.36629 9542 ft 300 kts 247°
2026-04-30 20:23 52.46055 5.33409 9386 ft 299 kts 247°
2026-04-30 20:24 52.45431 5.30529 9246 ft 298 kts 247°
2026-04-30 20:24 52.44736 5.27329 9099 ft 298 kts 246°
2026-04-30 20:24 52.44041 5.24134 8940 ft 297 kts 246°
2026-04-30 20:24 52.43346 5.20945 8789 ft 296 kts 246°
2026-04-30 20:25 52.41970 5.14644 8482 ft 295 kts 246°
2026-04-30 20:25 52.41278 5.11486 8320 ft 294 kts 246°
2026-04-30 20:26 52.39898 5.05192 8029 ft 293 kts 246°
2026-04-30 20:26 52.38519 4.98924 7732 ft 292 kts 246°
2026-04-30 20:26 52.37831 4.95804 7580 ft 291 kts 246°
2026-04-30 20:27 52.36462 4.89612 7291 ft 292 kts 246°
2026-04-30 20:27 52.35205 4.83932 7030 ft 288 kts 246°
2026-04-30 20:28 52.33890 4.77983 6745 ft 270 kts 245°
2026-04-30 20:28 52.33607 4.72078 6392 ft 263 kts 281°
2026-04-30 20:29 52.34450 4.66237 6089 ft 263 kts 279°
2026-04-30 20:30 52.32809 4.58474 5565 ft 246 kts 231°
2026-04-30 20:30 52.30047 4.51500 4720 ft 242 kts 231°
2026-04-30 20:31 52.27300 4.44747 3865 ft 233 kts 215°
2026-04-30 20:32 52.23351 4.44797 3293 ft 193 kts 145°
2026-04-30 20:32 52.21484 4.47795 2760 ft 192 kts 114°
2026-04-30 20:33 52.21081 4.49868 2520 ft 190 kts 108°
2026-04-30 20:33 52.21368 4.54165 2349 ft 198 kts 71°
2026-04-30 20:33 52.21997 4.56008 2235 ft 180 kts 66°
2026-04-30 20:34 52.23345 4.59489 2029 ft 177 kts 66°
2026-04-30 20:34 52.24545 4.62559 1604 ft 145 kts 67°
2026-04-30 20:35 52.25058 4.63874 1425 ft 131 kts 67°
2026-04-30 20:35 52.25429 4.64842 1292 ft 133 kts 67°
2026-04-30 20:35 52.26396 4.67325 949 ft 130 kts 68°
2026-04-30 20:36 52.26876 4.68557 774 ft 129 kts 64°
2026-04-30 20:36 52.27366 4.69821 595 ft 133 kts 63°
2026-04-30 20:36 52.28370 4.72324 249 ft 134 kts 63°
2026-04-30 20:37 52.28867 4.73608 61 ft 133 kts 62°
2026-04-30 20:37 52.29345 4.74838 -1 ft 120 kts 62°
2026-04-30 20:37 52.29632 4.75597 -3 ft 37 kts 56°
2026-04-30 20:37 52.29672 4.75672 -4 ft 5 kts 45°
2026-04-30 20:38 52.29753 4.75772 -4 ft 20 kts 30°
2026-04-30 20:38 52.29839 4.75848 -4 ft 22 kts 28°